DEMXB EDDN-EDDL

Flight info

Callsign DEMXB
Flight time 1h 34m
Altitude 4500
Route 4935N01058E DCT EDQA DCT 5011N01045E 5020N01018E DCT FUL DCT EDFL DCT GMH DCT 5112N00656E DCT 5116N00648E
Aircraft PA24/L-SFGRY/S

Departure

Time 2026-05-04 20:14
Airport Nuremberg Airport (EDDN)

Arrival

Time 2026-05-04 21:48
Airport Düsseldorf Airport (EDDL)
Time Latitude Longitude Altitude Speed Heading
2026-05-04 19:56 49.49468 11.06887 1019 ft 0 kts 100°
2026-05-04 20:02 49.49466 11.06907 1019 ft 6 kts 98°
2026-05-04 20:03 49.49497 11.06935 1021 ft 5 kts
2026-05-04 20:03 49.49522 11.06963 1020 ft 7 kts 89°
2026-05-04 20:03 49.49515 11.07056 1020 ft 10 kts 98°
2026-05-04 20:03 49.49504 11.07156 1021 ft 7 kts 98°
2026-05-04 20:04 49.49527 11.07194 1021 ft 4 kts
2026-05-04 20:04 49.49563 11.07202 1022 ft 7 kts
2026-05-04 20:04 49.49609 11.07216 1022 ft 5 kts 22°
2026-05-04 20:04 49.49636 11.07231 1022 ft 4 kts 64°
2026-05-04 20:05 49.49635 11.07284 1023 ft 7 kts 96°
2026-05-04 20:05 49.49624 11.07385 1023 ft 11 kts 96°
2026-05-04 20:05 49.49615 11.07483 1024 ft 8 kts 97°
2026-05-04 20:05 49.49607 11.07564 1024 ft 8 kts 99°
2026-05-04 20:06 49.49599 11.07642 1025 ft 8 kts 99°
2026-05-04 20:06 49.49592 11.07722 1024 ft 7 kts 99°
2026-05-04 20:06 49.49584 11.07796 1024 ft 7 kts 98°
2026-05-04 20:06 49.49576 11.07878 1025 ft 8 kts 97°
2026-05-04 20:07 49.49568 11.07965 1026 ft 9 kts 99°
2026-05-04 20:07 49.49557 11.08077 1026 ft 12 kts 98°
2026-05-04 20:07 49.49544 11.08198 1027 ft 11 kts 99°
2026-05-04 20:07 49.49535 11.08302 1029 ft 6 kts 86°
2026-05-04 20:08 49.49547 11.08340 1030 ft 4 kts 38°
2026-05-04 20:08 49.49560 11.08349 1030 ft 1 kts 10°
2026-05-04 20:08 49.49591 11.08357 1031 ft 7 kts 15°
2026-05-04 20:08 49.49630 11.08416 1030 ft 9 kts 54°
2026-05-04 20:09 49.49639 11.08435 1030 ft 0 kts 52°
2026-05-04 20:11 49.49649 11.08453 1030 ft 6 kts 50°
2026-05-04 20:12 49.49673 11.08502 1031 ft 5 kts 54°
2026-05-04 20:12 49.49695 11.08542 1032 ft 5 kts 40°
2026-05-04 20:12 49.49701 11.08550 1032 ft 1 kts 33°
2026-05-04 20:12 49.49753 11.08562 1031 ft 12 kts 343°
2026-05-04 20:13 49.49804 11.08438 1030 ft 19 kts 279°
2026-05-04 20:13 49.49859 11.07932 1029 ft 76 kts 278°
2026-05-04 20:13 49.49938 11.07046 1148 ft 86 kts 279°
2026-05-04 20:13 49.50106 11.06148 1355 ft 89 kts 311°
2026-05-04 20:14 49.50631 11.05603 1555 ft 97 kts 328°
2026-05-04 20:14 49.51243 11.05067 1734 ft 105 kts 336°
2026-05-04 20:14 49.51919 11.04601 1923 ft 105 kts 337°
2026-05-04 20:14 49.52457 11.03940 2158 ft 98 kts 320°
2026-05-04 20:15 49.52954 11.03219 2311 ft 100 kts 319°
2026-05-04 20:15 49.53457 11.02503 2499 ft 98 kts 325°
2026-05-04 20:15 49.54023 11.01889 2667 ft 100 kts 326°
2026-05-04 20:15 49.54560 11.01181 2816 ft 106 kts 323°
2026-05-04 20:16 49.55160 11.00394 2843 ft 119 kts 323°
2026-05-04 20:16 49.55817 10.99533 2836 ft 131 kts 322°
2026-05-04 20:16 49.56520 10.98596 2856 ft 136 kts 322°
2026-05-04 20:16 49.57245 10.97630 2861 ft 141 kts 322°
2026-05-04 20:17 49.57975 10.96602 2895 ft 141 kts 319°
2026-05-04 20:17 49.58738 10.95654 2933 ft 142 kts 337°
2026-05-04 20:17 49.59682 10.95300 3013 ft 138 kts 352°
2026-05-04 20:17 49.60626 10.95088 3058 ft 138 kts 355°
2026-05-04 20:18 49.61587 10.94944 3087 ft 139 kts 356°
2026-05-04 20:18 49.62546 10.94820 3124 ft 139 kts 358°
2026-05-04 20:18 49.63517 10.94684 3145 ft 140 kts 355°
2026-05-04 20:18 49.64480 10.94461 3193 ft 140 kts 356°
2026-05-04 20:19 49.65132 10.94348 3242 ft 138 kts 356°
2026-05-04 20:19 49.66043 10.94196 3407 ft 130 kts 356°
2026-05-04 20:19 49.66923 10.94046 3566 ft 125 kts 356°
2026-05-04 20:19 49.67783 10.93907 3759 ft 119 kts 357°
2026-05-04 20:20 49.68581 10.93827 3985 ft 111 kts 360°
2026-05-04 20:20 49.69319 10.93793 4203 ft 105 kts
2026-05-04 20:20 49.70043 10.93767 4379 ft 104 kts
2026-05-04 20:20 49.70775 10.93737 4511 ft 110 kts
2026-05-04 20:21 49.71584 10.93703 4546 ft 121 kts
2026-05-04 20:21 49.72452 10.93651 4626 ft 127 kts 359°
2026-05-04 20:21 49.74273 10.93519 4769 ft 136 kts 358°
2026-05-04 20:22 49.75225 10.93534 4835 ft 138 kts
2026-05-04 20:22 49.76183 10.93583 4909 ft 138 kts
2026-05-04 20:22 49.77143 10.93592 4976 ft 139 kts
2026-05-04 20:22 49.78107 10.93611 5080 ft 138 kts
2026-05-04 20:23 49.79066 10.93619 5170 ft 138 kts
2026-05-04 20:23 49.80035 10.93574 5255 ft 139 kts 360°
2026-05-04 20:23 49.81007 10.93549 5338 ft 141 kts
2026-05-04 20:23 49.81991 10.93555 5418 ft 141 kts
2026-05-04 20:24 49.82970 10.93545 5503 ft 141 kts
2026-05-04 20:24 49.83960 10.93527 5562 ft 143 kts 360°
2026-05-04 20:24 49.84949 10.93503 5662 ft 142 kts 360°
2026-05-04 20:24 49.85941 10.93494 5734 ft 144 kts
2026-05-04 20:25 49.86947 10.93509 5793 ft 145 kts
2026-05-04 20:25 49.87971 10.93536 5781 ft 151 kts
2026-05-04 20:25 49.89040 10.93566 5769 ft 154 kts
2026-05-04 20:25 49.90098 10.93534 5842 ft 152 kts 352°
2026-05-04 20:26 49.91153 10.93093 5669 ft 163 kts 338°
2026-05-04 20:26 49.92196 10.92430 5689 ft 159 kts 335°
2026-05-04 20:26 49.93209 10.91763 5702 ft 158 kts 335°
2026-05-04 20:26 49.94229 10.91093 5654 ft 160 kts 335°
2026-05-04 20:27 49.95247 10.90410 5552 ft 160 kts 334°
2026-05-04 20:27 49.96283 10.89721 5384 ft 163 kts 336°
2026-05-04 20:27 49.97316 10.89047 5338 ft 159 kts 336°
2026-05-04 20:27 49.98340 10.88397 5228 ft 160 kts 337°
2026-05-04 20:28 49.99380 10.87753 5121 ft 161 kts 337°
2026-05-04 20:28 50.00403 10.87087 5052 ft 159 kts 335°
2026-05-04 20:28 50.01419 10.86394 4938 ft 160 kts 335°
2026-05-04 20:28 50.02434 10.85699 4848 ft 159 kts 335°
2026-05-04 20:29 50.03445 10.85012 4761 ft 159 kts 336°
2026-05-04 20:29 50.04458 10.84329 4667 ft 158 kts 336°
2026-05-04 20:29 50.05455 10.83657 4616 ft 158 kts 336°
2026-05-04 20:29 50.06464 10.82986 4627 ft 157 kts 336°
2026-05-04 20:30 50.07470 10.82316 4619 ft 157 kts 336°
2026-05-04 20:30 50.08475 10.81642 4594 ft 157 kts 336°
2026-05-04 20:30 50.09479 10.80952 4583 ft 158 kts 334°
2026-05-04 20:30 50.10465 10.80205 4598 ft 157 kts 333°
2026-05-04 20:31 50.11445 10.79446 4582 ft 158 kts 333°
2026-05-04 20:31 50.12437 10.78714 4576 ft 158 kts 336°
2026-05-04 20:31 50.13453 10.78084 4570 ft 157 kts 339°
2026-05-04 20:31 50.14480 10.77479 4560 ft 158 kts 339°
2026-05-04 20:32 50.15509 10.76877 4563 ft 158 kts 340°
2026-05-04 20:32 50.16546 10.76310 4561 ft 159 kts 341°
2026-05-04 20:32 50.17572 10.75679 4544 ft 159 kts 329°
2026-05-04 20:32 50.18324 10.74473 4568 ft 155 kts 299°
2026-05-04 20:33 50.18829 10.72980 4561 ft 156 kts 296°
2026-05-04 20:33 50.19313 10.71445 4534 ft 157 kts 294°
2026-05-04 20:33 50.19837 10.69956 4552 ft 156 kts 298°
2026-05-04 20:33 50.20375 10.68482 4543 ft 157 kts 298°
2026-05-04 20:34 50.20904 10.66994 4534 ft 157 kts 297°
2026-05-04 20:34 50.21397 10.65487 4545 ft 156 kts 294°
2026-05-04 20:34 50.21846 10.63942 4535 ft 156 kts 293°
2026-05-04 20:34 50.22351 10.62439 4535 ft 157 kts 299°
2026-05-04 20:35 50.22908 10.60979 4538 ft 155 kts 300°
2026-05-04 20:35 50.23463 10.59544 4541 ft 155 kts 300°
2026-05-04 20:35 50.24031 10.58111 4542 ft 155 kts 302°
2026-05-04 20:35 50.24629 10.56703 4543 ft 155 kts 303°
2026-05-04 20:36 50.25218 10.55292 4533 ft 155 kts 303°
2026-05-04 20:36 50.25831 10.53893 4531 ft 156 kts 302°
2026-05-04 20:36 50.26423 10.52474 4537 ft 156 kts 300°
2026-05-04 20:36 50.26943 10.50992 4529 ft 155 kts 297°
2026-05-04 20:37 50.27448 10.49503 4545 ft 154 kts 297°
2026-05-04 20:37 50.27939 10.48011 4539 ft 154 kts 295°
2026-05-04 20:37 50.28413 10.46498 4534 ft 155 kts 294°
2026-05-04 20:37 50.28877 10.44976 4536 ft 155 kts 295°
2026-05-04 20:38 50.29358 10.43465 4530 ft 155 kts 295°
2026-05-04 20:38 50.29823 10.41975 4530 ft 155 kts 294°
2026-05-04 20:38 50.30313 10.40450 4527 ft 155 kts 297°
2026-05-04 20:38 50.30829 10.38963 4535 ft 155 kts 297°
2026-05-04 20:39 50.31337 10.37472 4533 ft 155 kts 297°
2026-05-04 20:39 50.31854 10.35995 4536 ft 155 kts 297°
2026-05-04 20:39 50.32384 10.34520 4541 ft 155 kts 298°
2026-05-04 20:39 50.32885 10.33022 4533 ft 155 kts 294°
2026-05-04 20:40 50.33338 10.31521 4536 ft 154 kts 295°
2026-05-04 20:40 50.33829 10.30031 4536 ft 154 kts 296°
2026-05-04 20:40 50.34328 10.28541 4531 ft 154 kts 296°
2026-05-04 20:40 50.34814 10.27043 4531 ft 155 kts 295°
2026-05-04 20:41 50.35291 10.25536 4531 ft 154 kts 294°
2026-05-04 20:41 50.35759 10.24011 4500 ft 157 kts 295°
2026-05-04 20:41 50.36243 10.22532 4615 ft 147 kts 296°
2026-05-04 20:41 50.36718 10.21097 4597 ft 151 kts 296°
2026-05-04 20:42 50.37204 10.19620 4580 ft 153 kts 296°
2026-05-04 20:42 50.37681 10.18134 4561 ft 152 kts 296°
2026-05-04 20:42 50.38144 10.16651 4582 ft 151 kts 295°
2026-05-04 20:42 50.38591 10.15153 4574 ft 152 kts 295°
2026-05-04 20:43 50.39076 10.13682 4574 ft 152 kts 298°
2026-05-04 20:43 50.39583 10.12230 4583 ft 152 kts 299°
2026-05-04 20:43 50.40095 10.10783 4582 ft 152 kts 299°
2026-05-04 20:43 50.40623 10.09347 4575 ft 152 kts 300°
2026-05-04 20:44 50.41158 10.07918 4576 ft 152 kts 299°
2026-05-04 20:44 50.41664 10.06465 4574 ft 152 kts 297°
2026-05-04 20:44 50.42154 10.04993 4578 ft 152 kts 297°
2026-05-04 20:44 50.42652 10.03533 4576 ft 152 kts 300°
2026-05-04 20:45 50.43177 10.02090 4582 ft 152 kts 298°
2026-05-04 20:45 50.43674 10.00630 4580 ft 152 kts 298°
2026-05-04 20:45 50.44180 9.99176 4578 ft 152 kts 298°
2026-05-04 20:45 50.44651 9.97693 4574 ft 152 kts 294°
2026-05-04 20:46 50.45160 9.96237 4569 ft 151 kts 301°
2026-05-04 20:46 50.45714 9.94853 4585 ft 149 kts 302°
2026-05-04 20:46 50.46257 9.93462 4571 ft 149 kts 301°
2026-05-04 20:46 50.46764 9.92037 4569 ft 150 kts 298°
2026-05-04 20:47 50.47219 9.90566 4566 ft 150 kts 294°
2026-05-04 20:47 50.47657 9.89081 4566 ft 150 kts 296°
2026-05-04 20:47 50.48112 9.87613 4569 ft 149 kts 296°
2026-05-04 20:47 50.48568 9.86174 4570 ft 149 kts 298°
2026-05-04 20:48 50.49062 9.84734 4573 ft 150 kts 300°
2026-05-04 20:48 50.49577 9.83316 4572 ft 150 kts 299°
2026-05-04 20:48 50.50031 9.81843 4566 ft 150 kts 292°
2026-05-04 20:48 50.50513 9.80392 4555 ft 150 kts 303°
2026-05-04 20:49 50.51163 9.79118 4560 ft 150 kts 315°
2026-05-04 20:49 50.51956 9.78054 4560 ft 150 kts 321°
2026-05-04 20:49 50.52776 9.77057 4578 ft 149 kts 322°
2026-05-04 20:49 50.53606 9.76074 4571 ft 150 kts 322°
2026-05-04 20:50 50.54427 9.75070 4577 ft 149 kts 321°
2026-05-04 20:50 50.55258 9.74092 4579 ft 149 kts 322°
2026-05-04 20:50 50.56076 9.73082 4580 ft 149 kts 319°
2026-05-04 20:50 50.56852 9.71996 4584 ft 149 kts 316°
2026-05-04 20:51 50.57577 9.70829 4586 ft 149 kts 311°
2026-05-04 20:51 50.58209 9.69535 4576 ft 150 kts 300°
2026-05-04 20:51 50.58576 9.68001 4551 ft 151 kts 281°
2026-05-04 20:51 50.58647 9.66368 4579 ft 148 kts 270°
2026-05-04 20:52 50.58657 9.64756 4590 ft 148 kts 269°
2026-05-04 20:52 50.58614 9.63126 4567 ft 149 kts 268°
2026-05-04 20:52 50.58572 9.61542 4591 ft 147 kts 266°
2026-05-04 20:52 50.58484 9.59892 4574 ft 149 kts 263°
2026-05-04 20:53 50.58344 9.58301 4576 ft 149 kts 266°
2026-05-04 20:53 50.58482 9.56683 4525 ft 151 kts 286°
2026-05-04 20:53 50.58773 9.55119 4590 ft 146 kts 284°
2026-05-04 20:53 50.58932 9.53529 4560 ft 149 kts 274°
2026-05-04 20:54 50.58956 9.51893 4559 ft 149 kts 268°
2026-05-04 20:54 50.58900 9.50283 4594 ft 147 kts 264°
2026-05-04 20:54 50.58788 9.48673 4565 ft 149 kts 262°
2026-05-04 20:54 50.58651 9.47063 4586 ft 147 kts 263°
2026-05-04 20:55 50.58583 9.45452 4578 ft 148 kts 268°
2026-05-04 20:55 50.58553 9.43830 4581 ft 148 kts 269°
2026-05-04 20:55 50.58525 9.42211 4589 ft 148 kts 267°
2026-05-04 20:55 50.58463 9.40594 4582 ft 148 kts 266°
2026-05-04 20:56 50.58401 9.38976 4592 ft 148 kts 267°
2026-05-04 20:56 50.58359 9.37359 4594 ft 148 kts 269°
2026-05-04 20:56 50.58331 9.35738 4596 ft 148 kts 268°
2026-05-04 20:56 50.58291 9.34120 4600 ft 148 kts 268°
2026-05-04 20:57 50.58271 9.32501 4598 ft 148 kts 269°
2026-05-04 20:57 50.58303 9.30898 4604 ft 146 kts 270°
2026-05-04 20:57 50.58231 9.29304 4585 ft 146 kts 261°
2026-05-04 20:57 50.58122 9.27727 4611 ft 144 kts 264°
2026-05-04 20:58 50.58078 9.26143 4590 ft 146 kts 267°
2026-05-04 20:58 50.58076 9.24546 4592 ft 145 kts 269°
2026-05-04 20:58 50.58097 9.22956 4591 ft 146 kts 268°
2026-05-04 20:58 50.58102 9.21362 4576 ft 146 kts 268°
2026-05-04 20:59 50.58065 9.19771 4573 ft 145 kts 264°
2026-05-04 20:59 50.57972 9.18202 4555 ft 146 kts 261°
2026-05-04 20:59 50.57820 9.16610 4547 ft 145 kts 257°
2026-05-04 20:59 50.57664 9.15041 4520 ft 145 kts 261°
2026-05-04 21:00 50.57528 9.13468 4496 ft 145 kts 259°
2026-05-04 21:00 50.57306 9.11926 4464 ft 145 kts 250°
2026-05-04 21:00 50.56995 9.10446 4433 ft 143 kts 258°
2026-05-04 21:00 50.56943 9.08889 4410 ft 144 kts 270°
2026-05-04 21:01 50.56994 9.07300 4354 ft 148 kts 270°
2026-05-04 21:01 50.56920 9.05691 4366 ft 146 kts 262°
2026-05-04 21:01 50.56864 9.04111 4395 ft 145 kts 266°
2026-05-04 21:01 50.56863 9.02516 4379 ft 146 kts 270°
2026-05-04 21:02 50.56854 9.00927 4387 ft 144 kts 266°
2026-05-04 21:02 50.56860 8.99341 4345 ft 146 kts 269°
2026-05-04 21:02 50.56850 8.97760 4366 ft 143 kts 266°
2026-05-04 21:02 50.56813 8.96199 4354 ft 143 kts 266°
2026-05-04 21:03 50.56791 8.94630 4329 ft 144 kts 266°
2026-05-04 21:03 50.56742 8.93061 4323 ft 143 kts 264°
2026-05-04 21:03 50.56640 8.91499 4316 ft 143 kts 259°
2026-05-04 21:03 50.56440 8.89966 4294 ft 144 kts 260°
2026-05-04 21:04 50.56345 8.88402 4295 ft 143 kts 264°
2026-05-04 21:04 50.56291 8.86851 4313 ft 142 kts 266°
2026-05-04 21:04 50.56278 8.85819 4286 ft 144 kts 267°
2026-05-04 21:04 50.56263 8.84247 4276 ft 143 kts 268°
2026-05-04 21:05 50.56258 8.82687 4285 ft 143 kts 265°
2026-05-04 21:05 50.56154 8.81126 4258 ft 144 kts 259°
2026-05-04 21:05 50.55993 8.79584 4271 ft 142 kts 259°
2026-05-04 21:05 50.55811 8.78057 4254 ft 143 kts 258°
2026-05-04 21:06 50.55690 8.76500 4239 ft 143 kts 263°
2026-05-04 21:06 50.55595 8.74954 4249 ft 142 kts 263°
2026-05-04 21:06 50.55499 8.73405 4217 ft 142 kts 263°
2026-05-04 21:06 50.55406 8.71854 4119 ft 144 kts 263°
2026-05-04 21:07 50.55295 8.70285 4041 ft 143 kts 261°
2026-05-04 21:07 50.55161 8.68737 3967 ft 143 kts 262°
2026-05-04 21:07 50.55074 8.67172 3874 ft 144 kts 266°
2026-05-04 21:07 50.55014 8.65600 3799 ft 144 kts 265°
2026-05-04 21:08 50.54915 8.64035 3732 ft 143 kts 262°
2026-05-04 21:08 50.54815 8.62474 3656 ft 144 kts 265°
2026-05-04 21:08 50.54763 8.60896 3579 ft 144 kts 267°
2026-05-04 21:08 50.54723 8.59329 3518 ft 143 kts 271°
2026-05-04 21:09 50.55158 8.58016 3522 ft 140 kts 317°
2026-05-04 21:09 50.55956 8.57106 3445 ft 144 kts 324°
2026-05-04 21:09 50.56792 8.56200 3442 ft 145 kts 324°
2026-05-04 21:09 50.57605 8.55292 3521 ft 142 kts 325°
2026-05-04 21:10 50.58440 8.54427 3530 ft 145 kts 326°
2026-05-04 21:10 50.59276 8.53548 3576 ft 144 kts 325°
2026-05-04 21:10 50.60120 8.52693 3605 ft 145 kts 328°
2026-05-04 21:10 50.61008 8.51909 3611 ft 146 kts 330°
2026-05-04 21:11 50.61904 8.51165 3666 ft 145 kts 330°
2026-05-04 21:11 50.62746 8.50316 3669 ft 147 kts 325°
2026-05-04 21:11 50.63598 8.49406 3722 ft 145 kts 324°
2026-05-04 21:11 50.64416 8.48515 3739 ft 146 kts 324°
2026-05-04 21:12 50.65269 8.47632 3745 ft 148 kts 327°
2026-05-04 21:12 50.66137 8.46749 3747 ft 149 kts 325°
2026-05-04 21:12 50.66991 8.45847 3778 ft 147 kts 325°
2026-05-04 21:12 50.67839 8.44930 3787 ft 148 kts 323°
2026-05-04 21:13 50.68708 8.44047 3795 ft 149 kts 326°
2026-05-04 21:13 50.69584 8.43156 3761 ft 152 kts 325°
2026-05-04 21:13 50.70470 8.42226 3773 ft 153 kts 325°
2026-05-04 21:13 50.71360 8.41285 3756 ft 155 kts 325°
2026-05-04 21:14 50.72256 8.40335 3748 ft 154 kts 327°
2026-05-04 21:14 50.73176 8.39463 3738 ft 155 kts 328°
2026-05-04 21:14 50.74086 8.38546 3727 ft 155 kts 325°
2026-05-04 21:14 50.74959 8.37561 3719 ft 154 kts 322°
2026-05-04 21:15 50.75810 8.36523 3705 ft 154 kts 319°
2026-05-04 21:15 50.76574 8.35334 3687 ft 154 kts 313°
2026-05-04 21:15 50.77372 8.34204 3674 ft 154 kts 322°
2026-05-04 21:15 50.78248 8.33226 3672 ft 154 kts 324°
2026-05-04 21:16 50.79135 8.32278 3659 ft 154 kts 324°
2026-05-04 21:16 50.80010 8.31296 3647 ft 154 kts 323°
2026-05-04 21:16 50.80900 8.30355 3637 ft 154 kts 327°
2026-05-04 21:16 50.81814 8.29462 3628 ft 154 kts 327°
2026-05-04 21:17 50.82702 8.28516 3609 ft 154 kts 325°
2026-05-04 21:17 50.83585 8.27563 3608 ft 154 kts 324°
2026-05-04 21:17 50.84472 8.26613 3601 ft 154 kts 326°
2026-05-04 21:17 50.85358 8.25708 3587 ft 154 kts 328°
2026-05-04 21:18 50.86264 8.24800 3580 ft 154 kts 324°
2026-05-04 21:18 50.87125 8.23796 3576 ft 154 kts 322°
2026-05-04 21:18 50.87970 8.22755 3568 ft 154 kts 322°
2026-05-04 21:18 50.88828 8.21742 3559 ft 154 kts 323°
2026-05-04 21:19 50.89667 8.20698 3555 ft 153 kts 320°
2026-05-04 21:19 50.90481 8.19626 3578 ft 152 kts 319°
2026-05-04 21:19 50.91304 8.18565 3560 ft 153 kts 321°
2026-05-04 21:19 50.92160 8.17563 3570 ft 152 kts 324°
2026-05-04 21:20 50.93045 8.16640 3571 ft 153 kts 327°
2026-05-04 21:20 50.93949 8.15750 3565 ft 153 kts 328°
2026-05-04 21:20 50.94863 8.14884 3570 ft 152 kts 329°
2026-05-04 21:20 50.95759 8.13978 3557 ft 153 kts 326°
2026-05-04 21:21 50.96663 8.13088 3570 ft 152 kts 329°
2026-05-04 21:21 50.97573 8.12230 3561 ft 153 kts 326°
2026-05-04 21:21 50.98449 8.11267 3558 ft 153 kts 324°
2026-05-04 21:21 50.99332 8.10341 3557 ft 152 kts 327°
2026-05-04 21:22 51.00241 8.09470 3547 ft 153 kts 329°
2026-05-04 21:22 51.01142 8.08574 3544 ft 153 kts 325°
2026-05-04 21:22 51.02029 8.07649 3551 ft 152 kts 327°
2026-05-04 21:22 51.02939 8.06776 3535 ft 154 kts 324°
2026-05-04 21:23 51.03767 8.05707 3551 ft 153 kts 316°
2026-05-04 21:23 51.04565 8.04593 3589 ft 153 kts 318°
2026-05-04 21:23 51.05397 8.03526 3578 ft 154 kts 320°
2026-05-04 21:23 51.06243 8.02485 3592 ft 153 kts 321°
2026-05-04 21:24 51.07095 8.01476 3598 ft 153 kts 322°
2026-05-04 21:24 51.07956 8.00482 3599 ft 153 kts 323°
2026-05-04 21:24 51.08751 7.99362 3583 ft 154 kts 309°
2026-05-04 21:24 51.09423 7.98056 3599 ft 152 kts 312°
2026-05-04 21:25 51.10271 7.97021 3567 ft 155 kts 326°
2026-05-04 21:25 51.11150 7.96051 3610 ft 153 kts 321°
2026-05-04 21:25 51.12010 7.95096 3616 ft 154 kts 326°
2026-05-04 21:25 51.12922 7.94197 3625 ft 154 kts 328°
2026-05-04 21:26 51.13844 7.93338 3639 ft 153 kts 329°
2026-05-04 21:26 51.14775 7.92506 3631 ft 154 kts 325°
2026-05-04 21:26 51.15658 7.91539 3640 ft 153 kts 325°
2026-05-04 21:26 51.16567 7.90663 3668 ft 153 kts 329°
2026-05-04 21:27 51.17401 7.89642 3713 ft 150 kts 302°
2026-05-04 21:27 51.17617 7.88106 3818 ft 140 kts 261°
2026-05-04 21:27 51.17556 7.86577 3883 ft 139 kts 266°
2026-05-04 21:27 51.17562 7.85028 3924 ft 141 kts 269°
2026-05-04 21:28 51.17659 7.83446 3909 ft 145 kts 276°
2026-05-04 21:28 51.17734 7.81854 3984 ft 142 kts 270°
2026-05-04 21:28 51.17723 7.80277 4003 ft 144 kts 261°
2026-05-04 21:28 51.17605 7.78692 4027 ft 143 kts 260°
2026-05-04 21:29 51.17488 7.77127 4079 ft 143 kts 261°
2026-05-04 21:29 51.17414 7.75520 4003 ft 147 kts 265°
2026-05-04 21:29 51.17454 7.73895 3944 ft 149 kts 274°
2026-05-04 21:29 51.17604 7.72239 3844 ft 152 kts 278°
2026-05-04 21:30 51.17839 7.70608 3793 ft 151 kts 279°
2026-05-04 21:30 51.17945 7.68928 3699 ft 152 kts 270°
2026-05-04 21:30 51.17993 7.67260 3676 ft 149 kts 271°
2026-05-04 21:30 51.18083 7.65609 3591 ft 151 kts 274°
2026-05-04 21:31 51.18162 7.62276 3483 ft 150 kts 272°
2026-05-04 21:31 51.18240 7.60603 3419 ft 152 kts 271°
2026-05-04 21:31 51.18328 7.58924 3341 ft 151 kts 271°
2026-05-04 21:32 51.18348 7.57253 3296 ft 151 kts 265°
2026-05-04 21:32 51.18346 7.55585 3225 ft 151 kts 267°
2026-05-04 21:32 51.18385 7.53916 3156 ft 151 kts 272°
2026-05-04 21:32 51.18567 7.52255 3071 ft 153 kts 275°
2026-05-04 21:33 51.18652 7.50581 3078 ft 149 kts 269°
2026-05-04 21:33 51.18676 7.48960 3095 ft 145 kts 267°
2026-05-04 21:33 51.18659 7.47346 3036 ft 147 kts 263°
2026-05-04 21:33 51.18605 7.45734 3022 ft 145 kts 264°
2026-05-04 21:34 51.18576 7.44133 3007 ft 144 kts 266°
2026-05-04 21:34 51.18569 7.42552 3010 ft 142 kts 267°
2026-05-04 21:34 51.18601 7.40967 2996 ft 142 kts 269°
2026-05-04 21:34 51.18656 7.39411 3024 ft 141 kts 270°
2026-05-04 21:35 51.18716 7.37843 3006 ft 142 kts 269°
2026-05-04 21:35 51.18743 7.36287 3021 ft 139 kts 268°
2026-05-04 21:35 51.18781 7.34738 3000 ft 141 kts 269°
2026-05-04 21:35 51.18818 7.33172 2999 ft 141 kts 269°
2026-05-04 21:36 51.18836 7.31638 3002 ft 140 kts 266°
2026-05-04 21:36 51.18841 7.30077 2996 ft 141 kts 267°
2026-05-04 21:36 51.18845 7.28522 2989 ft 141 kts 266°
2026-05-04 21:36 51.18816 7.26962 2979 ft 140 kts 263°
2026-05-04 21:37 51.18724 7.25420 2964 ft 140 kts 262°
2026-05-04 21:37 51.18686 7.23870 2973 ft 140 kts 265°
2026-05-04 21:37 51.18689 7.22308 2965 ft 141 kts 267°
2026-05-04 21:37 51.18689 7.20756 2951 ft 140 kts 266°
2026-05-04 21:38 51.18688 7.19207 2936 ft 140 kts 266°
2026-05-04 21:38 51.18669 7.17649 2928 ft 141 kts 265°
2026-05-04 21:38 51.18676 7.16093 2902 ft 140 kts 269°
2026-05-04 21:38 51.18671 7.14541 2915 ft 140 kts 263°
2026-05-04 21:39 51.18601 7.13005 2933 ft 137 kts 261°
2026-05-04 21:39 51.18548 7.11487 2940 ft 138 kts 266°
2026-05-04 21:39 51.18615 7.09961 2914 ft 139 kts 271°
2026-05-04 21:39 51.18721 7.08412 2816 ft 143 kts 272°
2026-05-04 21:40 51.18832 7.06829 2744 ft 143 kts 273°
2026-05-04 21:40 51.18949 7.05267 2697 ft 142 kts 270°
2026-05-04 21:40 51.19008 7.03693 2600 ft 143 kts 270°
2026-05-04 21:40 51.19085 7.02125 2562 ft 141 kts 272°
2026-05-04 21:41 51.19186 7.00559 2493 ft 142 kts 273°
2026-05-04 21:41 51.19296 6.99033 2529 ft 135 kts 274°
2026-05-04 21:41 51.19397 6.97532 2452 ft 139 kts 271°
2026-05-04 21:41 51.19454 6.95986 2411 ft 138 kts 270°
2026-05-04 21:42 51.19496 6.94465 2373 ft 137 kts 272°
2026-05-04 21:42 51.19893 6.93127 2357 ft 138 kts 311°
2026-05-04 21:42 51.20732 6.92211 2140 ft 151 kts 324°
2026-05-04 21:42 51.21457 6.91074 2152 ft 145 kts 306°
2026-05-04 21:43 51.22065 6.89830 2180 ft 139 kts 306°
2026-05-04 21:43 51.22701 6.88647 2108 ft 143 kts 310°
2026-05-04 21:43 51.23419 6.87538 2059 ft 143 kts 316°
2026-05-04 21:43 51.24138 6.86467 2052 ft 141 kts 314°
2026-05-04 21:44 51.24867 6.85397 1985 ft 143 kts 316°
2026-05-04 21:44 51.25612 6.84358 1971 ft 141 kts 318°
2026-05-04 21:44 51.26374 6.83345 1838 ft 144 kts 318°
2026-05-04 21:44 51.27117 6.82328 1645 ft 139 kts 318°
2026-05-04 21:45 51.27586 6.81047 1432 ft 134 kts 274°
2026-05-04 21:45 51.27293 6.79722 1234 ft 128 kts 223°
2026-05-04 21:45 51.26508 6.79296 1125 ft 115 kts 169°
2026-05-04 21:45 51.25982 6.80073 1046 ft 107 kts 103°
2026-05-04 21:46 51.26190 6.81124 913 ft 99 kts 47°
2026-05-04 21:46 51.26795 6.81569 783 ft 97 kts
2026-05-04 21:46 51.27385 6.81171 689 ft 96 kts 316°
2026-05-04 21:46 51.28002 6.80870 593 ft 94 kts 355°
2026-05-04 21:47 51.28640 6.80808 545 ft 90 kts 348°
2026-05-04 21:47 51.29232 6.80418 483 ft 89 kts 332°
2026-05-04 21:47 51.29702 6.79886 479 ft 79 kts 315°
2026-05-04 21:47 51.29803 6.79118 397 ft 75 kts 250°
2026-05-04 21:48 51.29626 6.78623 278 ft 80 kts 230°
2026-05-04 21:48 51.29279 6.77951 180 ft 76 kts 230°
2026-05-04 21:48 51.29007 6.77375 125 ft 53 kts 229°
2026-05-04 21:48 51.28768 6.76897 130 ft 35 kts 228°
2026-05-04 21:49 51.28651 6.76678 129 ft 13 kts 222°
2026-05-04 21:49 51.28577 6.76685 130 ft 10 kts 144°
2026-05-04 21:49 51.28540 6.76727 131 ft 9 kts 143°
2026-05-04 21:49 51.28486 6.76755 131 ft 9 kts 200°
2026-05-04 21:50 51.28445 6.76682 131 ft 10 kts 231°
2026-05-04 21:50 51.28393 6.76578 131 ft 15 kts 232°
2026-05-04 21:50 51.28319 6.76422 131 ft 20 kts 232°
2026-05-04 21:50 51.28241 6.76255 131 ft 17 kts 234°
2026-05-04 21:51 51.28169 6.76104 131 ft 17 kts 233°
2026-05-04 21:51 51.28113 6.76005 131 ft 9 kts 237°
2026-05-04 21:51 51.28091 6.76030 131 ft 9 kts 124°
2026-05-04 21:51 51.28019 6.76051 131 ft 12 kts 189°
2026-05-04 21:52 51.27946 6.76048 131 ft 9 kts 180°
2026-05-04 21:52 51.27873 6.76045 131 ft 6 kts 180°
2026-05-04 21:52 51.27846 6.76045 131 ft 6 kts 180°
2026-05-04 21:52 51.27834 6.76011 131 ft 5 kts 303°
2026-05-04 21:53 51.27845 6.75920 131 ft 10 kts 267°
2026-05-04 21:53 51.27850 6.75814 131 ft 10 kts 287°
2026-05-04 21:53 51.27860 6.75676 131 ft 12 kts 270°
2026-05-04 21:53 51.27831 6.75590 131 ft 7 kts 231°
2026-05-04 21:54 51.27810 6.75549 131 ft 4 kts 234°
2026-05-04 21:54 51.27776 6.75473 131 ft 11 kts 232°
2026-05-04 21:54 51.27727 6.75438 131 ft 6 kts 163°
2026-05-04 21:54 51.27692 6.75462 131 ft 6 kts 158°
2026-05-04 21:55 51.27638 6.75509 131 ft 10 kts 144°
2026-05-04 21:55 51.27585 6.75542 131 ft 7 kts 153°
2026-05-04 21:55 51.27541 6.75578 131 ft 7 kts 153°
2026-05-04 21:55 51.27513 6.75580 131 ft 5 kts 235°
2026-05-04 21:56 51.27490 6.75508 131 ft 10 kts 244°
2026-05-04 21:56 51.27462 6.75408 131 ft 9 kts 273°
2026-05-04 21:56 51.27468 6.75358 131 ft 0 kts 279°
2026-05-04 21:56 51.27470 6.75343 131 ft 3 kts 279°
2026-05-04 21:57 51.27480 6.75284 131 ft 7 kts 292°
2026-05-04 21:57 51.27510 6.75224 131 ft 6 kts 318°
2026-05-04 21:57 51.27530 6.75232 131 ft 4 kts 88°
2026-05-04 21:57 51.27541 6.75278 131 ft 3 kts 74°
2026-05-04 21:58 51.27546 6.75308 131 ft 3 kts 21°
2026-05-04 21:58 51.27553 6.75311 131 ft 0 kts